EW4725 Weather Reports


time (UTC)temp
F
wind
direction
speed
knots
gust
knots
rain 1hr
in
rain 24hr
in
rain mn
in
humidity
%
barometer
mb
20260831232757 82 260 4.3 5.2 0.00 0.00 0.00 57 1011.9
20260831232217 82 283 2.6 3.5 0.00 0.00 0.00 57 1011.9
20260831231736 82 305 2.6 4.3 0.00 0.00 0.00 58 1011.8
20260831231237 82 260 3.5 6.1 0.00 0.00 0.00 58 1011.8
20260831230757 82 283 5.2 7.8 0.00 0.00 0.00 58 1011.8
20260831230237 82 260 4.3 5.2 0.00 0.00 0.00 58 1011.8
20260831225717 82 260 5.2 7.0 0.00 0.00 0.00 57 1011.9
20260831225217 82 283 5.2 7.8 0.00 0.00 0.00 58 1011.9
20260831224737 82 283 6.1 8.7 0.00 0.00 0.00 57 1011.9
20260831224216 83 260 6.1 7.8 0.00 0.00 0.00 56 1012.0
20260831223717 83 260 4.3 7.0 0.00 0.00 0.00 56 1012.0
20260831223236 84 305 4.3 6.1 0.00 0.00 0.00 55 1012.1
20260831222716 84 260 5.2 6.1 0.00 0.00 0.00 55 1012.1
20260831222216 84 238 0.9 0.9 0.00 0.00 0.00 52 1012.2
20260831221717 84 125 1.7 2.6 0.00 0.00 0.00 53 1012.2
20260831221216 85 148 4.3 6.1 0.00 0.00 0.00 53 1012.2
20260831220716 84 238 0.9 1.7 0.00 0.00 0.00 54 1012.3
20260831220216 84 283 2.6 3.5 0.00 0.00 0.00 55 1012.3
20260831215717 83 125 3.5 4.3 0.00 0.00 0.00 55 1012.3
20260831215216 84 148 3.5 6.1 0.00 0.00 0.00 55 1012.4
20260831214717 84 125 3.5 6.1 0.00 0.00 0.00 56 1012.5
20260831214217 84 148 3.5 5.2 0.00 0.00 0.00 55 1012.5
20260831213737 84 148 1.7 3.5 0.00 0.00 0.00 57 1012.6
20260831213216 83 193 4.3 7.8 0.00 0.00 0.00 57 1012.6
20260831212716 83 148 2.6 3.5 0.00 0.00 0.00 57 1012.7
20260831212216 82 125 2.6 4.3 0.00 0.00 0.00 58 1012.8
20260831211717 83 148 3.5 7.0 0.00 0.00 0.00 58 1012.9
20260831211236 83 148 3.5 5.2 0.00 0.00 0.00 59 1012.8
20260831210716 83 148 4.3 5.2 0.00 0.00 0.00 59 1012.9
20260831210216 82 193 4.3 6.1 0.00 0.00 0.00 59 1012.9
20260831205717 83 125 5.2 7.8 0.00 0.00 0.00 58 1012.8
20260831205237 83 170 3.5 6.1 0.00 0.00 0.00 58 1012.9
20260831204716 83 170 4.3 7.0 0.00 0.00 0.00 60 1012.9
20260831204237 82 170 2.6 4.3 0.00 0.00 0.00 62 1012.9
20260831203717 82 215 5.2 7.0 0.00 0.00 0.00 61 1012.9
20260831203216 82 125 3.5 6.1 0.00 0.00 0.00 61 1013.0
20260831202716 82 148 6.1 8.7 0.00 0.00 0.00 60 1013.0
20260831202256 83 148 5.2 9.6 0.00 0.00 0.00 61 1013.0
20260831201717 82 170 5.2 7.0 0.00 0.00 0.00 62 1013.1
20260831201236 82 148 3.5 6.1 0.00 0.00 0.00 62 1013.1
20260831200716 82 215 4.3 7.0 0.00 0.00 0.00 61 1013.1
20260831200216 82 148 2.6 5.2 0.00 0.00 0.00 62 1013.2
20260831195716 82 215 5.2 7.0 0.00 0.00 0.00 62 1013.2
20260831195216 82 170 4.3 7.8 0.00 0.00 0.00 63 1013.2
20260831194716 83 170 6.1 7.0 0.00 0.00 0.00 62 1013.2
20260831194216 82 260 4.3 5.2 0.00 0.00 0.00 62 1013.2
20260831193716 82 148 0.9 3.5 0.00 0.00 0.00 63 1013.3
20260831193216 82 170 4.3 7.0 0.00 0.00 0.00 62 1013.3
20260831192716 82 215 4.3 6.1 0.00 0.00 0.00 63 1013.3
20260831192236 83 170 3.5 5.2 0.00 0.00 0.00 62 1013.4
20260831191716 82 260 2.6 3.5 0.00 0.00 0.00 63 1013.4
20260831191236 82 260 1.7 4.3 0.00 0.00 0.00 63 1013.4
20260831190716 81 238 3.5 5.2 0.00 0.00 0.00 65 1013.5
20260831190216 81 283 1.7 3.5 0.00 0.00 0.00 64 1013.5
20260831185736 81 103 0.9 1.7 0.00 0.00 0.00 65 1013.5
20260831185216 81 238 2.6 5.2 0.00 0.00 0.00 64 1013.6
20260831184736 82 260 3.5 6.1 0.00 0.00 0.00 65 1013.6
20260831184216 81 215 1.7 2.6 0.00 0.00 0.00 65 1013.6
20260831183716 81 125 4.3 6.1 0.00 0.00 0.00 65 1013.6
20260831183216 81 148 3.5 7.0 0.00 0.00 0.00 65 1013.6
20260831182736 81 148 4.3 6.1 0.00 0.00 0.00 64 1013.6
20260831182216 81 215 3.5 6.1 0.00 0.00 0.00 65 1013.6
20260831181716 81 260 2.6 3.5 0.00 0.00 0.00 64 1013.6
20260831181216 81 125 3.5 5.2 0.00 0.00 0.00 65 1013.5
20260831180736 80 238 2.6 3.5 0.00 0.00 0.00 65 1013.6
20260831180216 80 260 0.9 1.7 0.00 0.00 0.00 67 1013.5
20260831175716 80 215 2.6 3.5 0.00 0.00 0.00 67 1013.6
20260831175216 79 328 0.9 2.6 0.00 0.00 0.00 68 1013.6
20260831174737 79 125 2.6 4.3 0.00 0.00 0.00 68 1013.7
20260831174216 79 260 2.6 3.5 0.00 0.00 0.00 69 1013.7
20260831173716 79 260 1.7 3.5 0.00 0.00 0.00 69 1013.7
20260831173216 79 170 1.7 2.6 0.00 0.00 0.00 69 1013.7
20260831172716 79 35 1.7 2.6 0.00 0.00 0.00 69 1013.7
20260831172216 78 260 1.7 3.5 0.00 0.00 0.00 70 1013.7
20260831171716 78 260 2.6 5.2 0.00 0.00 0.00 69 1013.6
20260831171216 78 260 1.7 3.5 0.00 0.00 0.00 70 1013.5
20260831170716 79 148 2.6 3.5 0.00 0.00 0.00 69 1013.6
20260831170236 78 0.0 1.7 0.00 0.00 0.00 71 1013.6
20260831165716 77 148 0.9 1.7 0.00 0.00 0.00 73 1013.5
20260831165216 77 283 0.9 2.6 0.00 0.00 0.00 73 1013.4
20260831164716 77 0.0 1.7 0.00 0.00 0.00 73 1013.5
20260831164236 76 260 1.7 3.5 0.00 0.00 0.00 75 1013.4
20260831163716 76 305 1.7 2.6 0.00 0.00 0.00 74 1013.3
20260831163216 76 0.0 1.7 0.00 0.00 0.00 75 1013.3
20260831162716 76 0.0 0.9 0.00 0.00 0.00 75 1013.3
20260831162216 76 260 2.6 4.3 0.00 0.00 0.00 75 1013.3
20260831161736 75 0.0 0.0 0.00 0.00 0.00 77 1013.3
20260831161216 74 0.0 0.9 0.00 0.00 0.00 78 1013.3
20260831160716 74 125 1.7 2.6 0.00 0.00 0.00 77 1013.3
20260831160216 74 0.0 0.9 0.00 0.00 0.00 79 1013.3
20260831155756 74 103 1.7 4.3 0.00 0.00 0.00 79 1013.4
20260831155216 74 125 2.6 4.3 0.00 0.00 0.00 79 1013.3
20260831154716 74 125 3.5 5.2 0.00 0.00 0.00 79 1013.3
20260831154216 74 0.0 0.0 0.00 0.00 0.00 80 1013.2
20260831153716 73 13 0.9 1.7 0.00 0.00 0.00 81 1013.2
20260831153216 73 238 0.9 1.7 0.00 0.00 0.00 81 1013.2
20260831152716 72 0.0 0.0 0.00 0.00 0.00 82 1013.2
20260831152236 72 0.0 0.9 0.00 0.00 0.00 82 1013.2
20260831151736 72 283 0.9 0.9 0.00 0.00 0.00 83 1013.1
20260831151216 72 0.0 0.0 0.00 0.00 0.00 84 1013.2
20260831150715 71 0.0 0.0 0.00 0.00 0.00 84 1013.1
20260831150216 71 0.0 0.0 0.00 0.00 0.00 85 1013.1
20260831145736 71 0.0 0.0 0.00 0.00 0.00 85 1013.0
20260831145216 70 0.0 0.0 0.00 0.00 0.00 86 1013.0
20260831144716 70 0.0 0.9 0.00 0.00 0.00 86 1013.0
20260831144256 69 0.0 0.9 0.00 0.00 0.00 87 1013.0
20260831143715 69 260 0.9 0.9 0.00 0.00 0.00 88 1012.9
20260831143215 69 0.0 0.0 0.00 0.00 0.00 88 1012.8
20260831142715 68 0.0 0.0 0.00 0.00 0.00 89 1012.7
20260831142216 68 0.0 0.0 0.00 0.00 0.00 89 1012.7
20260831141716 67 0.0 0.0 0.00 0.00 0.00 90 1012.6
20260831141216 67 0.0 0.0 0.00 0.00 0.00 90 1012.5
20260831140715 67 0.0 0.0 0.00 0.00 0.00 89 1012.4
20260831140215 66 0.0 0.0 0.00 0.00 0.00 89 1012.4
20260831135715 66 0.0 0.0 0.00 0.00 0.00 89 1012.3
20260831135216 66 0.0 0.0 0.00 0.00 0.00 88 1012.3
20260831134936 66 0.0 0.0 0.00 0.00 0.00 89 1012.2
20260831134416 66 0.0 0.0 0.00 0.00 0.00 88 1012.1
20260831133936 66 0.0 0.0 0.00 0.00 0.00 88 1012.1
20260831133415 66 0.0 0.0 0.00 0.00 0.00 87 1012.1
20260831132936 66 0.0 0.0 0.00 0.00 0.00 87 1012.0
20260831132436 66 0.0 0.0 0.00 0.00 0.00 87 1012.0
20260831131916 66 0.0 0.0 0.00 0.00 0.00 86 1011.9
20260831131416 66 0.0 0.0 0.00 0.00 0.00 84 1011.9
20260831130936 67 0.0 0.0 0.00 0.00 0.00 85 1011.8
20260831130415 67 0.0 0.0 0.00 0.00 0.00 84 1011.9
20260831125915 67 0.0 0.0 0.00 0.00 0.00 85 1011.9
20260831125415 67 0.0 0.0 0.00 0.00 0.00 85 1011.8
20260831124915 67 0.0 0.0 0.00 0.00 0.00 85 1011.8
20260831124415 67 0.0 0.0 0.00 0.00 0.00 84 1011.9
20260831123916 67 0.0 0.0 0.00 0.00 0.00 84 1011.9
20260831123415 67 0.0 0.0 0.00 0.00 0.00 84 1011.8
20260831122915 67 0.0 0.0 0.00 0.00 0.00 85 1011.8
20260831122416 67 0.0 0.0 0.00 0.00 0.00 85 1011.8
20260831121935 66 0.0 0.0 0.00 0.00 0.00 85 1011.8
20260831121416 66 0.0 0.0 0.00 0.00 0.00 83 1011.8
20260831120935 67 0.0 0.0 0.00 0.00 0.00 83 1011.8
20260831120415 67 0.0 0.0 0.00 0.00 0.00 83 1011.7
20260831115916 67 0.0 0.0 0.00 0.00 0.00 82 1011.7
20260831115415 67 0.0 0.0 0.00 0.00 0.00 83 1011.8
20260831114915 67 0.0 0.0 0.00 0.00 0.00 82 1011.8
20260831114415 67 0.0 0.0 0.00 0.00 0.00 82 1011.8
20260831113915 67 0.0 0.0 0.00 0.00 0.00 83 1011.8
20260831113416 67 0.0 0.0 0.00 0.00 0.00 83 1011.8
20260831112915 67 0.0 0.0 0.00 0.00 0.00 83 1011.9
20260831112415 67 0.0 0.0 0.00 0.00 0.00 82 1011.9
20260831111915 67 0.0 0.0 0.00 0.00 0.00 82 1011.8
20260831111415 67 0.0 0.0 0.00 0.00 0.00 81 1011.8
20260831110915 68 0.0 0.0 0.00 0.00 0.00 81 1011.8
20260831110415 68 0.0 0.0 0.00 0.00 0.00 81 1011.9
20260831105915 68 0.0 0.0 0.00 0.00 0.00 81 1011.8
20260831105415 68 0.0 0.0 0.00 0.00 0.00 82 1011.8
20260831104915 68 0.0 0.0 0.00 0.00 0.00 82 1011.8
20260831104415 68 0.0 0.0 0.00 0.00 0.00 83 1011.9
20260831103915 68 0.0 0.0 0.00 0.00 0.00 83 1011.9
20260831103415 68 0.0 0.0 0.00 0.00 0.00 84 1011.9
20260831102915 68 0.0 0.0 0.00 0.00 0.00 84 1011.9
20260831102415 68 0.0 0.0 0.00 0.00 0.00 85 1011.9
20260831101915 68 0.0 0.0 0.00 0.00 0.00 86 1012.0
20260831101455 68 0.0 0.0 0.00 0.00 0.00 87 1011.9
20260831100915 68 0.0 0.0 0.00 0.00 0.00 88 1011.9
20260831100415 68 0.0 0.0 0.00 0.00 0.00 88 1011.9
20260831095915 67 0.0 0.0 0.00 0.00 0.00 88 1011.9
20260831095415 67 0.0 0.0 0.00 0.00 0.00 87 1011.9
20260831094915 68 0.0 0.0 0.00 0.00 0.00 86 1011.9
20260831094415 68 0.0 0.0 0.00 0.00 0.00 86 1011.9
20260831093915 68 0.0 0.0 0.00 0.00 0.00 86 1011.9
20260831093415 68 0.0 0.0 0.00 0.00 0.00 86 1011.9
20260831092917 68 0.0 0.0 0.00 0.00 0.00 86 1011.9
20260831092417 68 0.0 0.0 0.00 0.00 0.00 86 1011.8
20260831091917 69 0.0 0.0 0.00 0.00 0.00 85 1011.8
20260831091415 69 0.0 0.0 0.00 0.00 0.00 86 1011.9
20260831090917 69 0.0 0.0 0.00 0.00 0.00 86 1011.8
20260831090417 69 0.0 0.0 0.00 0.00 0.00 86 1011.8
20260831085917 69 0.0 0.0 0.00 0.00 0.00 85 1011.8
20260831085415 69 0.0 0.0 0.00 0.00 0.00 85 1011.8
20260831084917 69 0.0 0.0 0.00 0.00 0.00 85 1011.8
20260831084417 69 0.0 0.0 0.00 0.00 0.00 85 1011.7
20260831083917 69 0.0 0.0 0.00 0.00 0.00 85 1011.8
20260831083417 69 0.0 0.0 0.00 0.00 0.00 84 1011.8
20260831082917 69 0.0 0.0 0.00 0.00 0.00 83 1011.8
20260831082417 69 0.0 0.0 0.00 0.00 0.00 83 1011.9
20260831081917 70 0.0 0.0 0.00 0.00 0.00 83 1011.9
20260831081417 70 0.0 0.0 0.00 0.00 0.00 83 1011.9
20260831080937 70 0.0 0.0 0.00 0.00 0.00 83 1011.9
20260831080417 70 0.0 0.0 0.00 0.00 0.00 83 1011.9
20260831075937 70 0.0 0.0 0.00 0.00 0.00 83 1012.0
20260831075417 70 0.0 0.0 0.00 0.00 0.00 83 1011.9
20260831074917 71 0.0 0.0 0.00 0.00 0.00 82 1011.9
20260831074437 71 0.0 0.0 0.00 0.00 0.00 83 1012.0
20260831073917 70 0.0 0.0 0.00 0.00 0.00 84 1011.9
20260831073417 70 0.0 0.0 0.00 0.00 0.00 83 1011.9
20260831072917 70 0.0 0.0 0.00 0.00 0.00 85 1011.8
20260831072417 70 0.0 0.0 0.00 0.00 0.00 85 1011.8
20260831071917 70 0.0 0.0 0.00 0.00 0.00 85 1011.8
20260831071437 70 0.0 0.0 0.00 0.00 0.00 84 1011.8
20260831070917 70 0.0 0.0 0.00 0.00 0.00 84 1011.9
20260831070437 70 0.0 0.0 0.00 0.00 0.00 83 1011.8
20260831065415 70 0.0 0.0 0.00 0.00 0.00 83 1011.7
20260831064936 70 0.0 0.0 0.00 0.00 0.00 83 1011.7
20260831063935 71 0.0 0.0 0.00 0.00 0.00 83 1011.7
20260831063416 70 0.0 0.0 0.00 0.00 0.00 83 1011.6
20260831062915 70 0.0 0.0 0.00 0.00 0.00 82 1011.6
20260831062415 71 0.0 0.0 0.00 0.00 0.00 82 1011.6
20260831061915 71 0.0 0.0 0.00 0.00 0.00 82 1011.5
20260831061415 71 0.0 0.0 0.00 0.00 0.00 82 1011.5
20260831060915 71 0.0 0.0 0.00 0.00 0.00 82 1011.5
20260831060415 71 0.0 0.0 0.00 0.00 0.00 82 1011.6
20260831055915 71 0.0 0.0 0.00 0.00 0.00 82 1011.6
20260831055415 71 0.0 0.0 0.00 0.00 0.00 82 1011.7
20260831054935 71 0.0 0.0 0.00 0.00 0.00 82 1011.7
20260831054435 71 0.0 0.0 0.00 0.00 0.00 82 1011.6
20260831053915 72 0.0 0.0 0.00 0.00 0.00 81 1011.6
20260831053415 72 0.0 0.0 0.00 0.00 0.00 81 1011.6
20260831052915 72 0.0 0.0 0.00 0.00 0.00 81 1011.6
20260831052415 72 0.0 0.0 0.00 0.00 0.00 80 1011.6
20260831051915 72 0.0 0.0 0.00 0.00 0.00 80 1011.6
20260831051415 72 283 0.9 1.7 0.00 0.00 0.00 80 1011.5
20260831050915 72 283 1.7 1.7 0.00 0.00 0.00 79 1011.6
20260831050435 72 0.0 1.7 0.00 0.00 0.00 78 1011.6
20260831045915 73 260 0.9 1.7 0.00 0.00 0.00 77 1011.8
20260831045415 73 0.0 0.0 0.00 0.00 0.00 76 1011.8
20260831044935 73 283 0.9 0.9 0.00 0.00 0.00 76 1011.7
20260831044415 73 0.0 0.9 0.00 0.00 0.00 75 1011.6
20260831043937 73 305 1.7 2.6 0.00 0.00 0.00 74 1011.5
20260831043417 73 260 2.6 3.5 0.00 0.00 0.00 73 1011.5
20260831042955 73 305 0.9 2.6 0.00 0.00 0.00 73 1011.4
20260831042538 73 283 4.3 5.2 0.00 0.00 0.00 72 1011.5
20260831041917 73 283 2.6 4.3 0.00 0.00 0.00 72 1011.4
20260831041417 73 260 1.7 4.3 0.00 0.00 0.00 72 1011.3
20260831040917 73 283 1.7 5.2 0.00 0.00 0.00 71 1011.3
20260831040417 73 260 0.9 1.7 0.00 0.00 0.00 71 1011.2
20260831035917 73 260 1.7 4.3 0.00 0.00 0.00 71 1011.1
20260831035417 73 283 0.9 1.7 0.00 0.00 0.00 70 1011.1
20260831034917 73 283 2.6 4.3 0.00 0.00 0.00 70 1010.9
20260831034417 73 260 0.9 2.6 0.00 0.00 0.00 70 1010.8
20260831033917 73 260 3.5 4.3 0.00 0.00 0.00 69 1010.8
20260831033417 73 283 4.3 6.1 0.00 0.00 0.00 69 1010.6
20260831032935 73 305 3.5 7.0 0.00 0.00 0.00 69 1010.6
20260831032417 73 305 3.5 6.1 0.00 0.00 0.00 69 1010.5
20260831031917 73 283 4.3 6.1 0.00 0.00 0.00 69 1010.4
20260831031437 74 305 3.5 6.1 0.00 0.00 0.00 70 1010.4
20260831030917 74 283 1.7 3.5 0.00 0.00 0.00 71 1010.3
20260831030417 74 283 4.3 6.1 0.00 0.00 0.00 71 1010.3
20260831025958 74 260 1.7 4.3 0.00 0.00 0.00 71 1010.3
20260831025437 74 260 3.5 4.3 0.00 0.00 0.00 71 1010.2
20260831024917 74 283 3.5 6.1 0.00 0.00 0.00 70 1010.2
20260831024437 74 260 7.0 9.6 0.00 0.00 0.00 70 1010.2
20260831023917 74 283 4.3 5.2 0.00 0.00 0.00 71 1010.3
20260831023417 74 283 4.3 6.1 0.00 0.00 0.00 72 1010.2
20260831022917 74 305 4.3 6.1 0.00 0.00 0.00 72 1010.2
20260831022415 74 283 5.2 7.0 0.00 0.00 0.00 72 1010.0
20260831021937 74 283 5.2 7.8 0.00 0.00 0.00 73 1010.0
20260831021417 75 260 3.5 5.2 0.00 0.00 0.00 75 1010.1
20260831020917 75 283 3.5 5.2 0.00 0.00 0.00 75 1010.1
20260831020417 75 283 7.8 9.6 0.00 0.00 0.00 75 1010.1
20260831015917 75 260 6.1 8.7 0.00 0.00 0.00 75 1010.1
20260831015417 76 283 7.0 10.4 0.00 0.00 0.00 75 1010.1
20260831014917 76 260 5.2 7.0 0.00 0.00 0.00 74 1010.0
20260831014417 77 260 4.3 6.1 0.00 0.00 0.00 75 1010.0
20260831013917 77 260 6.1 7.8 0.00 0.00 0.00 74 1010.1
20260831013417 77 260 3.5 4.3 0.00 0.00 0.00 74 1010.0
20260831012917 78 283 7.8 9.6 0.00 0.00 0.00 73 1010.0
20260831012437 78 260 7.0 11.3 0.00 0.00 0.00 72 1010.0
20260831011917 78 283 5.2 7.8 0.00 0.00 0.00 72 1010.0
20260831011417 79 283 5.2 7.8 0.00 0.00 0.00 72 1010.0
20260831010917 79 283 6.1 7.8 0.00 0.00 0.00 72 1009.9
20260831010437 79 260 4.3 7.0 0.00 0.00 0.00 72 1009.9
20260831005917 80 283 7.8 11.3 0.00 0.00 0.00 70 1009.9
20260831005416 80 283 3.5 7.8 0.00 0.00 0.00 70 1009.9
20260831004917 80 283 5.2 7.0 0.00 0.00 0.00 70 1009.9
20260831004417 81 260 6.1 7.8 0.00 0.00 0.00 68 1009.9
20260831003917 82 305 7.0 10.4 0.00 0.00 0.00 68 1009.9
20260831003417 82 260 5.2 9.6 0.00 0.00 0.00 67 1009.9
20260831002916 83 283 4.3 7.0 0.00 0.00 0.00 66 1009.9
20260831002437 83 260 6.1 8.7 0.00 0.00 0.00 63 1009.9
20260831001917 84 260 3.5 5.2 0.00 0.00 0.00 64 1009.8
20260831001417 84 260 7.0 9.6 0.00 0.00 0.00 62 1009.9
20260831000936 84 283 5.2 6.1 0.00 0.00 0.00 62 1009.8
20260831000417 85 283 5.2 7.0 0.00 0.00 0.00 62 1009.7
20260830235917 85 260 3.5 7.0 0.00 0.00 0.00 60 1009.7
20260830235416 85 260 4.3 6.1 0.00 0.00 0.00 60 1009.7
20260830234916 86 260 5.2 7.0 0.00 0.00 0.00 59 1009.7
20260830234416 86 283 5.2 7.8 0.00 0.00 0.00 58 1009.7
20260830233917 87 305 3.5 5.2 0.00 0.00 0.00 55 1009.7
20260830233436 87 283 4.3 7.0 0.00 0.00 0.00 56 1009.7